owner,sensor,date,latitude,longitude,vertical_datum,wind_speed,wind_to_direction,wind_speed_of_gust,qcFlag 
TABS,ioos:station:wmo:42043:1,2017-12-01T00:00:00Z,28.9818,-94.9186,4.0,3.546110545,52.67735797,4.2,'11111222,11111222,11111222' 
TABS,ioos:station:wmo:42043:1,2017-12-01T00:30:00Z,28.9818,-94.9186,4.0,3.285909311,51.17647105,3.73,'11111222,11111222,11111222' 
TABS,ioos:station:wmo:42043:1,2017-12-01T01:00:00Z,28.9818,-94.9186,4.0,3.540056497,37.19330174,4.21,'11111222,11111222,11111222' 
TABS,ioos:station:wmo:42043:1,2017-12-01T01:30:00Z,28.9818,-94.9186,4.0,4.094154369,44.9007282,4.99,'11111222,11111222,11111222' 
TABS,ioos:station:wmo:42043:1,2017-12-01T02:00:00Z,28.9818,-94.9186,4.0,3.833444926,48.70126812,4.66,'11111222,11111222,11111222' 
TABS,ioos:station:wmo:42043:1,2017-12-01T02:30:00Z,28.9818,-94.9186,4.0,4.515052602,51.02276647,5.61,'11111222,11111222,11111222' 
TABS,ioos:station:wmo:42043:1,2017-12-01T03:00:00Z,28.9818,-94.9186,4.0,4.16389241,50.65217458,4.97,'11111222,11111222,11111222' 
TABS,ioos:station:wmo:42043:1,2017-12-01T03:30:00Z,28.9818,-94.9186,4.0,3.840052083,48.58917266,4.97,'11111222,11111222,11111222' 
TABS,ioos:station:wmo:42043:1,2017-12-01T04:00:00Z,28.9818,-94.9186,4.0,4.023145536,51.76245344,4.81,'11111222,11111222,11111222' 
TABS,ioos:station:wmo:42043:1,2017-12-01T04:30:00Z,28.9818,-94.9186,4.0,4.695636272,59.11959927,5.6,'11111222,11111222,11111222' 
TABS,ioos:station:wmo:42043:1,2017-12-01T05:00:00Z,28.9818,-94.9186,4.0,4.463765227,62.51610125,5.55,'11111222,11111222,11111222' 
TABS,ioos:station:wmo:42043:1,2017-12-01T05:30:00Z,28.9818,-94.9186,4.0,4.773698776,57.14183345,6.07,'11111222,11111222,11111222' 
TABS,ioos:station:wmo:42043:1,2017-12-01T06:00:00Z,28.9818,-94.9186,4.0,5.080797182,52.1147935,6.36,'11111222,11111222,11111222' 
TABS,ioos:station:wmo:42043:1,2017-12-01T06:30:00Z,28.9818,-94.9186,4.0,4.939392675,59.59291841,5.71,'11111222,11111222,11111222' 
TABS,ioos:station:wmo:42043:1,2017-12-01T07:00:00Z,28.9818,-94.9186,4.0,4.85273119,64.22664527,6.11,'11111222,11111222,11111222' 
TABS,ioos:station:wmo:42043:1,2017-12-01T07:30:00Z,28.9818,-94.9186,4.0,4.234725493,58.22373891,5.12,'11111222,11111222,11111222' 
TABS,ioos:station:wmo:42043:1,2017-12-01T08:00:00Z,28.9818,-94.9186,4.0,4.341808379,57.7005212,5.35,'11111222,11111222,11111222' 
TABS,ioos:station:wmo:42043:1,2017-12-01T08:30:00Z,28.9818,-94.9186,4.0,4.476751054,63.89248753,5.32,'11111222,11111222,11111222' 
TABS,ioos:station:wmo:42043:1,2017-12-01T09:00:00Z,28.9818,-94.9186,4.0,4.414079746,63.78288753,5.64,'11111222,11111222,11111222' 
TABS,ioos:station:wmo:42043:1,2017-12-01T09:30:00Z,28.9818,-94.9186,4.0,4.325575106,64.67866392,5.54,'11111222,11111222,11111222' 
TABS,ioos:station:wmo:42043:1,2017-12-01T10:00:00Z,28.9818,-94.9186,4.0,4.452605979,66.71656095,5.4,'11111222,11111222,11111222' 
TABS,ioos:station:wmo:42043:1,2017-12-01T10:30:00Z,28.9818,-94.9186,4.0,4.596977268,78.83633394,5.8,'11111222,11111222,11111222' 
TABS,ioos:station:wmo:42043:1,2017-12-01T11:00:00Z,28.9818,-94.9186,4.0,4.26568869,79.19017401,5.41,'11111222,11111222,11111222' 
TABS,ioos:station:wmo:42043:1,2017-12-01T11:30:00Z,28.9818,-94.9186,4.0,4.554876508,74.07149901,5.32,'11111222,11111222,11111222' 
TABS,ioos:station:wmo:42043:1,2017-12-01T12:00:00Z,28.9818,-94.9186,4.0,4.871550061,78.87419946,6.02,'11111222,11111222,11111222' 
TABS,ioos:station:wmo:42043:1,2017-12-01T12:30:00Z,28.9818,-94.9186,4.0,4.718580295,78.88018157,5.63,'11111222,11111222,11111222' 
TABS,ioos:station:wmo:42043:1,2017-12-01T13:00:00Z,28.9818,-94.9186,4.0,4.166461328,82.41404081,5.19,'11111222,11111222,11111222' 
TABS,ioos:station:wmo:42043:1,2017-12-01T13:30:00Z,28.9818,-94.9186,4.0,3.667492331,76.75909013,4.58,'11111222,11111222,11111222' 
TABS,ioos:station:wmo:42043:1,2017-12-01T14:00:00Z,28.9818,-94.9186,4.0,3.252967876,77.0313962,4.14,'11111222,11111222,11111222' 
TABS,ioos:station:wmo:42043:1,2017-12-01T14:30:00Z,28.9818,-94.9186,4.0,3.168296072,77.23542105,3.76,'11111222,11111222,11111222' 
TABS,ioos:station:wmo:42043:1,2017-12-01T15:00:00Z,28.9818,-94.9186,4.0,3.055650504,65.02805501,3.92,'11111222,11111222,11111222' 
TABS,ioos:station:wmo:42043:1,2017-12-01T15:30:00Z,28.9818,-94.9186,4.0,3.020016556,61.73743781,3.47,'11111222,11111222,11111222' 
TABS,ioos:station:wmo:42043:1,2017-12-01T16:00:00Z,28.9818,-94.9186,4.0,3.166607017,54.2516489,3.97,'11111222,11111222,11111222' 
TABS,ioos:station:wmo:42043:1,2017-12-01T16:30:00Z,28.9818,-94.9186,4.0,2.877168747,54.76292845,3.54,'11111222,11111222,11111222' 
TABS,ioos:station:wmo:42043:1,2017-12-01T17:00:00Z,28.9818,-94.9186,4.0,3.408724101,56.72916039,3.95,'11111222,11111222,11111222' 
TABS,ioos:station:wmo:42043:1,2017-12-01T17:30:00Z,28.9818,-94.9186,4.0,3.507549002,58.16742113,4.17,'11111222,11111222,11111222' 
TABS,ioos:station:wmo:42043:1,2017-12-01T18:00:00Z,28.9818,-94.9186,4.0,3.335416016,60.74482599,3.85,'11111222,11111222,11111222' 
TABS,ioos:station:wmo:42043:1,2017-12-01T18:30:00Z,28.9818,-94.9186,4.0,3.694861296,64.68296583,4.39,'11111222,11111222,11111222' 
TABS,ioos:station:wmo:42043:1,2017-12-01T19:00:00Z,28.9818,-94.9186,4.0,3.517328532,65.47479355,4.1,'11111222,11111222,11111222' 
TABS,ioos:station:wmo:42043:1,2017-12-01T19:30:00Z,28.9818,-94.9186,4.0,3.53192582,74.90100227,4.2,'11111222,11111222,11111222' 
TABS,ioos:station:wmo:42043:1,2017-12-01T20:00:00Z,28.9818,-94.9186,4.0,3.014962686,84.2889993,3.72,'11111222,11111222,11111222' 
TABS,ioos:station:wmo:42043:1,2017-12-01T20:30:00Z,28.9818,-94.9186,4.0,2.683076592,99.00633151,3.2,'11111222,11111222,11111222' 
TABS,ioos:station:wmo:42043:1,2017-12-01T21:00:00Z,28.9818,-94.9186,4.0,2.928514982,107.692876,3.58,'11111222,11111222,11111222' 
TABS,ioos:station:wmo:42043:1,2017-12-01T21:30:00Z,28.9818,-94.9186,4.0,2.929334395,117.0027728,3.51,'11111222,11111222,11111222' 
TABS,ioos:station:wmo:42043:1,2017-12-01T22:00:00Z,28.9818,-94.9186,4.0,3.14707801,120.5582026,3.88,'11111222,11111222,11111222' 
TABS,ioos:station:wmo:42043:1,2017-12-01T22:30:00Z,28.9818,-94.9186,4.0,2.912473176,124.5088632,3.33,'11111222,11111222,11111222' 
TABS,ioos:station:wmo:42043:1,2017-12-01T23:00:00Z,28.9818,-94.9186,4.0,3.050590107,137.5244755,3.72,'11111222,11111222,11111222' 
TABS,ioos:station:wmo:42043:1,2017-12-01T23:30:00Z,28.9818,-94.9186,4.0,2.766983918,139.6909892,3.17,'11111222,11111222,11111222' 
TABS,ioos:station:wmo:42043:1,2017-12-02T00:00:00Z,28.9818,-94.9186,4.0,2.842885858,134.1452203,3.3,'11111222,11111222,11111222' 
TABS,ioos:station:wmo:42043:1,2017-12-02T00:30:00Z,28.9818,-94.9186,4.0,3.20407553,127.263642,3.61,'11111222,11111222,11111222' 
TABS,ioos:station:wmo:42043:1,2017-12-02T01:00:00Z,28.9818,-94.9186,4.0,3.042663307,120.1890139,3.67,'11111222,11111222,11111222' 
TABS,ioos:station:wmo:42043:1,2017-12-02T01:30:00Z,28.9818,-94.9186,4.0,3.172333526,127.7010693,3.63,'11111222,11111222,11111222' 
TABS,ioos:station:wmo:42043:1,2017-12-02T02:00:00Z,28.9818,-94.9186,4.0,2.998216136,126.182259,3.38,'11111222,11111222,11111222' 
TABS,ioos:station:wmo:42043:1,2017-12-02T02:30:00Z,28.9818,-94.9186,4.0,2.854277492,131.7338843,3.31,'11111222,11111222,11111222' 
TABS,ioos:station:wmo:42043:1,2017-12-02T03:00:00Z,28.9818,-94.9186,4.0,2.605167941,125.1545163,3.06,'11111222,11111222,11111222' 
TABS,ioos:station:wmo:42043:1,2017-12-02T03:30:00Z,28.9818,-94.9186,4.0,2.284753816,101.3595077,2.61,'11111222,11111222,11111222' 
TABS,ioos:station:wmo:42043:1,2017-12-02T04:00:00Z,28.9818,-94.9186,4.0,1.936620768,99.51135906,2.23,'11111222,11111222,11111222' 
TABS,ioos:station:wmo:42043:1,2017-12-02T04:30:00Z,28.9818,-94.9186,4.0,1.477633243,84.17325068,1.62,'11111222,11111222,11111222' 
TABS,ioos:station:wmo:42043:1,2017-12-02T05:00:00Z,28.9818,-94.9186,4.0,1.729855485,100.6607443,2.03,'11111222,11111222,11111222' 
TABS,ioos:station:wmo:42043:1,2017-12-02T05:30:00Z,28.9818,-94.9186,4.0,1.562849961,97.35278308,1.87,'11111222,11111222,11111222' 
TABS,ioos:station:wmo:42043:1,2017-12-02T06:00:00Z,28.9818,-94.9186,4.0,1.363561513,110.1629778,1.6,'11111222,11111222,11111222' 
TABS,ioos:station:wmo:42043:1,2017-12-02T06:30:00Z,28.9818,-94.9186,4.0,0.761577311,60.06813723,0.9,'11111222,11111222,11111222' 
TABS,ioos:station:wmo:42043:1,2017-12-02T07:00:00Z,28.9818,-94.9186,4.0,0.774919351,72.73380996,1.0,'11111222,11111222,11111222' 
TABS,ioos:station:wmo:42043:1,2017-12-02T07:30:00Z,28.9818,-94.9186,4.0,2.052997808,137.7641666,2.54,'11111222,11111222,11111222' 
TABS,ioos:station:wmo:42043:1,2017-12-02T08:00:00Z,28.9818,-94.9186,4.0,2.528003165,149.580702,2.8,'11111222,11111222,11111222' 
TABS,ioos:station:wmo:42043:1,2017-12-02T08:30:00Z,28.9818,-94.9186,4.0,1.967358635,148.0875135,2.36,'11111222,11111222,11111222' 
TABS,ioos:station:wmo:42043:1,2017-12-02T09:00:00Z,28.9818,-94.9186,4.0,2.024746898,156.7273608,2.34,'11111222,11111222,11111222' 
TABS,ioos:station:wmo:42043:1,2017-12-02T09:30:00Z,28.9818,-94.9186,4.0,2.248755211,160.5178218,2.69,'11111222,11111222,11111222' 
TABS,ioos:station:wmo:42043:1,2017-12-02T10:00:00Z,28.9818,-94.9186,4.0,1.920338512,169.8021335,2.55,'11111222,11111222,11111222' 
TABS,ioos:station:wmo:42043:1,2017-12-02T10:30:00Z,28.9818,-94.9186,4.0,1.448378404,170.8630808,1.75,'11111222,11111222,11111222' 
TABS,ioos:station:wmo:42043:1,2017-12-02T11:00:00Z,28.9818,-94.9186,4.0,0.573846669,138.532602,0.77,'11111222,11111222,11111222' 
TABS,ioos:station:wmo:42043:1,2017-12-02T11:30:00Z,28.9818,-94.9186,4.0,0.471699057,147.9949021,0.77,'11111222,11111222,11111222' 
TABS,ioos:station:wmo:42043:1,2017-12-02T12:00:00Z,28.9818,-94.9186,4.0,0.615548536,46.9746137,0.92,'11111222,11111222,11111222' 
TABS,ioos:station:wmo:42043:1,2017-12-02T12:30:00Z,28.9818,-94.9186,4.0,1.554155719,37.68068205,1.68,'11111222,11111222,11111222' 
TABS,ioos:station:wmo:42043:1,2017-12-02T13:00:00Z,28.9818,-94.9186,4.0,1.598061325,44.99968431,1.69,'11111222,11111222,11111222' 
TABS,ioos:station:wmo:42043:1,2017-12-02T13:30:00Z,28.9818,-94.9186,4.0,2.011218536,34.87503633,2.19,'11111222,11111222,11111222' 
TABS,ioos:station:wmo:42043:1,2017-12-02T14:00:00Z,28.9818,-94.9186,4.0,2.026277375,25.42660425,2.15,'11111222,11111222,11111222' 
TABS,ioos:station:wmo:42043:1,2017-12-02T14:30:00Z,28.9818,-94.9186,4.0,2.718308297,34.50823183,3.06,'11111222,11111222,11111222' 
TABS,ioos:station:wmo:42043:1,2017-12-02T15:00:00Z,28.9818,-94.9186,4.0,1.647300823,60.94504293,1.84,'11111222,11111222,11111222' 
TABS,ioos:station:wmo:42043:1,2017-12-02T15:30:00Z,28.9818,-94.9186,4.0,2.62497619,47.00652735,2.95,'11111222,11111222,11111222' 
TABS,ioos:station:wmo:42043:1,2017-12-02T16:00:00Z,28.9818,-94.9186,4.0,2.88586209,46.40370825,3.34,'11111222,11111222,11111222' 
TABS,ioos:station:wmo:42043:1,2017-12-02T16:30:00Z,28.9818,-94.9186,4.0,4.212991811,47.98213892,4.69,'11111222,11111222,11111222' 
TABS,ioos:station:wmo:42043:1,2017-12-02T17:00:00Z,28.9818,-94.9186,4.0,4.392413915,71.68842187,5.27,'11111222,11111222,11111222' 
TABS,ioos:station:wmo:42043:1,2017-12-02T17:30:00Z,28.9818,-94.9186,4.0,4.852638458,88.11009871,5.86,'11111222,11111222,11111222' 
TABS,ioos:station:wmo:42043:1,2017-12-02T18:00:00Z,28.9818,-94.9186,4.0,4.190107397,89.58935474,4.88,'11111222,11111222,11111222' 
TABS,ioos:station:wmo:42043:1,2017-12-02T18:30:00Z,28.9818,-94.9186,4.0,3.881816585,79.76076549,4.64,'11111222,11111222,11111222' 
TABS,ioos:station:wmo:42043:1,2017-12-02T19:00:00Z,28.9818,-94.9186,4.0,4.046047454,95.10509295,4.56,'11111222,11111222,11111222' 
TABS,ioos:station:wmo:42043:1,2017-12-02T19:30:00Z,28.9818,-94.9186,4.0,3.978253386,110.7586966,4.62,'11111222,11111222,11111222' 
TABS,ioos:station:wmo:42043:1,2017-12-02T20:00:00Z,28.9818,-94.9186,4.0,3.676329691,110.2098393,4.17,'11111222,11111222,11111222' 
TABS,ioos:station:wmo:42043:1,2017-12-02T20:30:00Z,28.9818,-94.9186,4.0,3.466554485,107.285386,3.86,'11111222,11111222,11111222' 
TABS,ioos:station:wmo:42043:1,2017-12-02T21:00:00Z,28.9818,-94.9186,4.0,3.704119329,118.0182489,4.12,'11111222,11111222,11111222' 
TABS,ioos:station:wmo:42043:1,2017-12-02T21:30:00Z,28.9818,-94.9186,4.0,3.870917204,113.1212155,4.38,'11111222,11111222,11111222' 
TABS,ioos:station:wmo:42043:1,2017-12-02T22:00:00Z,28.9818,-94.9186,4.0,3.812925386,125.6078883,4.36,'11111222,11111222,11111222' 
TABS,ioos:station:wmo:42043:1,2017-12-02T22:30:00Z,28.9818,-94.9186,4.0,3.84584191,131.7328404,4.52,'11111222,11111222,11111222' 
TABS,ioos:station:wmo:42043:1,2017-12-02T23:00:00Z,28.9818,-94.9186,4.0,3.65789557,119.2983784,4.35,'11111222,11111222,11111222' 
TABS,ioos:station:wmo:42043:1,2017-12-02T23:30:00Z,28.9818,-94.9186,4.0,3.745931126,120.1246685,4.27,'11111222,11111222,11111222' 
TABS,ioos:station:wmo:42043:1,2017-12-03T00:00:00Z,28.9818,-94.9186,4.0,3.356009535,127.0068129,3.81,'11111222,11111222,11111222' 
TABS,ioos:station:wmo:42043:1,2017-12-03T00:30:00Z,28.9818,-94.9186,4.0,3.736308338,127.6063243,4.37,'11111222,11111222,11111222' 
TABS,ioos:station:wmo:42043:1,2017-12-03T01:00:00Z,28.9818,-94.9186,4.0,3.47828981,122.913722,4.25,'11111222,11111222,11111222' 
TABS,ioos:station:wmo:42043:1,2017-12-03T01:30:00Z,28.9818,-94.9186,4.0,3.17926092,112.3707011,3.71,'11111222,11111222,11111222' 
TABS,ioos:station:wmo:42043:1,2017-12-03T02:00:00Z,28.9818,-94.9186,4.0,3.557105565,114.7642537,4.56,'11111222,11111222,11111222' 
TABS,ioos:station:wmo:42043:1,2017-12-03T02:30:00Z,28.9818,-94.9186,4.0,3.326695057,119.3393419,4.06,'11111222,11111222,11111222' 
TABS,ioos:station:wmo:42043:1,2017-12-03T03:00:00Z,28.9818,-94.9186,4.0,3.403086834,104.8125052,4.02,'11111222,11111222,11111222' 
TABS,ioos:station:wmo:42043:1,2017-12-03T03:30:00Z,28.9818,-94.9186,4.0,3.79226845,107.336379,4.52,'11111222,11111222,11111222' 
TABS,ioos:station:wmo:42043:1,2017-12-03T04:00:00Z,28.9818,-94.9186,4.0,3.827531842,109.8555889,4.65,'11111222,11111222,11111222' 
TABS,ioos:station:wmo:42043:1,2017-12-03T04:30:00Z,28.9818,-94.9186,4.0,3.933611572,114.4804824,4.64,'11111222,11111222,11111222' 
TABS,ioos:station:wmo:42043:1,2017-12-03T05:00:00Z,28.9818,-94.9186,4.0,3.819371676,117.1021216,4.46,'11111222,11111222,11111222' 
TABS,ioos:station:wmo:42043:1,2017-12-03T05:30:00Z,28.9818,-94.9186,4.0,4.072407151,124.9001515,4.74,'11111222,11111222,11111222' 
TABS,ioos:station:wmo:42043:1,2017-12-03T06:00:00Z,28.9818,-94.9186,4.0,3.533893037,130.1795609,4.14,'11111222,11111222,11111222' 
TABS,ioos:station:wmo:42043:1,2017-12-03T06:30:00Z,28.9818,-94.9186,4.0,3.340733452,128.0708635,3.91,'11111222,11111222,11111222' 
TABS,ioos:station:wmo:42043:1,2017-12-03T07:00:00Z,28.9818,-94.9186,4.0,3.800631526,130.7324324,4.43,'11111222,11111222,11111222' 
TABS,ioos:station:wmo:42043:1,2017-12-03T07:30:00Z,28.9818,-94.9186,4.0,3.842408099,142.2953316,4.41,'11111222,11111222,11111222' 
TABS,ioos:station:wmo:42043:1,2017-12-03T08:00:00Z,28.9818,-94.9186,4.0,3.755329546,129.9231077,4.64,'11111222,11111222,11111222' 
TABS,ioos:station:wmo:42043:1,2017-12-03T08:30:00Z,28.9818,-94.9186,4.0,3.827022341,129.8058989,4.27,'11111222,11111222,11111222' 
TABS,ioos:station:wmo:42043:1,2017-12-03T09:00:00Z,28.9818,-94.9186,4.0,3.683069372,131.6984577,4.16,'11111222,11111222,11111222' 
TABS,ioos:station:wmo:42043:1,2017-12-03T09:30:00Z,28.9818,-94.9186,4.0,3.335161166,131.9619967,3.81,'11111222,11111222,11111222' 
TABS,ioos:station:wmo:42043:1,2017-12-03T10:00:00Z,28.9818,-94.9186,4.0,3.030264015,127.6265666,3.58,'11111222,11111222,11111222' 
TABS,ioos:station:wmo:42043:1,2017-12-03T10:30:00Z,28.9818,-94.9186,4.0,2.866251908,127.6298649,3.18,'11111222,11111222,11111222' 
TABS,ioos:station:wmo:42043:1,2017-12-03T11:00:00Z,28.9818,-94.9186,4.0,2.888771365,119.6714298,3.26,'11111222,11111222,11111222' 
TABS,ioos:station:wmo:42043:1,2017-12-03T11:30:00Z,28.9818,-94.9186,4.0,2.686633581,113.7030114,3.16,'11111222,11111222,11111222' 
TABS,ioos:station:wmo:42043:1,2017-12-03T12:00:00Z,28.9818,-94.9186,4.0,2.699407342,120.7456983,3.04,'11111222,11111222,11111222' 
TABS,ioos:station:wmo:42043:1,2017-12-03T12:30:00Z,28.9818,-94.9186,4.0,2.893803725,122.1526409,3.13,'11111222,11111222,11111222' 
TABS,ioos:station:wmo:42043:1,2017-12-03T13:00:00Z,28.9818,-94.9186,4.0,2.512468905,121.1596526,2.81,'11111222,11111222,11111222' 
TABS,ioos:station:wmo:42043:1,2017-12-03T13:30:00Z,28.9818,-94.9186,4.0,2.22497191,110.7975346,2.55,'11111222,11111222,11111222' 
TABS,ioos:station:wmo:42043:1,2017-12-03T14:00:00Z,28.9818,-94.9186,4.0,2.126640543,110.6510173,2.34,'11111222,11111222,11111222' 
TABS,ioos:station:wmo:42043:1,2017-12-03T14:30:00Z,28.9818,-94.9186,4.0,2.435282324,120.883407,2.6,'11111222,11111222,11111222' 
TABS,ioos:station:wmo:42043:1,2017-12-03T15:00:00Z,28.9818,-94.9186,4.0,2.405535283,113.261507,2.61,'11111222,11111222,11111222' 
TABS,ioos:station:wmo:42043:1,2017-12-03T15:30:00Z,28.9818,-94.9186,4.0,2.190365266,91.04680038,2.41,'11111222,11111222,11111222' 
TABS,ioos:station:wmo:42043:1,2017-12-03T16:00:00Z,28.9818,-94.9186,4.0,2.800607077,79.09089651,3.16,'11111222,11111222,11111222' 
TABS,ioos:station:wmo:42043:1,2017-12-03T16:30:00Z,28.9818,-94.9186,4.0,2.761159177,88.3393006,3.04,'11111222,11111222,11111222' 
TABS,ioos:station:wmo:42043:1,2017-12-03T17:00:00Z,28.9818,-94.9186,4.0,3.252460607,103.6948271,3.57,'11111222,11111222,11111222' 
TABS,ioos:station:wmo:42043:1,2017-12-03T17:30:00Z,28.9818,-94.9186,4.0,3.389985251,108.2215379,3.91,'11111222,11111222,11111222' 
TABS,ioos:station:wmo:42043:1,2017-12-03T18:00:00Z,28.9818,-94.9186,4.0,3.150650726,104.5218025,3.41,'11111222,11111222,11111222' 
TABS,ioos:station:wmo:42043:1,2017-12-03T18:30:00Z,28.9818,-94.9186,4.0,2.871410803,91.79655987,3.35,'11111222,11111222,11111222' 
TABS,ioos:station:wmo:42043:1,2017-12-03T19:00:00Z,28.9818,-94.9186,4.0,3.617692635,113.802047,4.12,'11111222,11111222,11111222' 
TABS,ioos:station:wmo:42043:1,2017-12-03T19:30:00Z,28.9818,-94.9186,4.0,2.949321956,99.36690897,3.2,'11111222,11111222,11111222' 
TABS,ioos:station:wmo:42043:1,2017-12-03T20:00:00Z,28.9818,-94.9186,4.0,3.600111109,96.05939447,4.15,'11111222,11111222,11111222' 
TABS,ioos:station:wmo:42043:1,2017-12-03T20:30:00Z,28.9818,-94.9186,4.0,3.706453831,107.7509402,4.33,'11111222,11111222,11111222' 
TABS,ioos:station:wmo:42043:1,2017-12-03T21:00:00Z,28.9818,-94.9186,4.0,3.582401429,106.2094079,4.34,'11111222,11111222,11111222' 
TABS,ioos:station:wmo:42043:1,2017-12-03T21:30:00Z,28.9818,-94.9186,4.0,3.048688243,103.8543071,3.41,'11111222,11111222,11111222' 
TABS,ioos:station:wmo:42043:1,2017-12-03T22:00:00Z,28.9818,-94.9186,4.0,3.753624915,108.4835959,4.11,'11111222,11111222,11111222' 
TABS,ioos:station:wmo:42043:1,2017-12-03T22:30:00Z,28.9818,-94.9186,4.0,3.602235417,109.290422,4.06,'11111222,11111222,11111222' 
TABS,ioos:station:wmo:42043:1,2017-12-03T23:00:00Z,28.9818,-94.9186,4.0,3.760332432,111.8583677,4.18,'11111222,11111222,11111222' 
TABS,ioos:station:wmo:42043:1,2017-12-03T23:30:00Z,28.9818,-94.9186,4.0,3.793006723,106.8587803,4.22,'11111222,11111222,11111222' 
TABS,ioos:station:wmo:42043:1,2017-12-04T00:00:00Z,28.9818,-94.9186,4.0,4.444007201,101.1586177,5.04,'11111222,11111222,11111222' 
TABS,ioos:station:wmo:42043:1,2017-12-04T00:30:00Z,28.9818,-94.9186,4.0,5.224098008,108.2965965,5.98,'11111222,11111222,11111222' 
TABS,ioos:station:wmo:42043:1,2017-12-04T01:00:00Z,28.9818,-94.9186,4.0,6.343406025,112.0365963,7.39,'11111222,11111222,11111222' 
TABS,ioos:station:wmo:42043:1,2017-12-04T01:30:00Z,28.9818,-94.9186,4.0,6.395944027,118.8896398,7.35,'11111222,11111222,11111222' 
TABS,ioos:station:wmo:42043:1,2017-12-04T02:00:00Z,28.9818,-94.9186,4.0,1.696643746,113.9971421,3.87,'11111222,11111222,11111222' 
TABS,ioos:station:wmo:42043:1,2017-12-04T02:30:00Z,28.9818,-94.9186,4.0,6.668433099,126.2172209,8.08,'11111222,11111222,11111222' 
TABS,ioos:station:wmo:42043:1,2017-12-04T03:00:00Z,28.9818,-94.9186,4.0,5.400981392,122.6017174,6.27,'11111222,11111222,11111222' 
TABS,ioos:station:wmo:42043:1,2017-12-04T03:30:00Z,28.9818,-94.9186,4.0,5.88126687,132.5885671,6.6,'11111222,11111222,11111222' 
TABS,ioos:station:wmo:42043:1,2017-12-04T04:00:00Z,28.9818,-94.9186,4.0,4.494441011,122.2759898,5.25,'11111222,11111222,11111222' 
TABS,ioos:station:wmo:42043:1,2017-12-04T04:30:00Z,28.9818,-94.9186,4.0,3.061388574,101.4938486,3.64,'11111222,11111222,11111222' 
TABS,ioos:station:wmo:42043:1,2017-12-04T05:00:00Z,28.9818,-94.9186,4.0,4.874628191,120.036811,5.53,'11111222,11111222,11111222' 
TABS,ioos:station:wmo:42043:1,2017-12-04T05:30:00Z,28.9818,-94.9186,4.0,4.623905276,114.1264115,5.14,'11111222,11111222,11111222' 
TABS,ioos:station:wmo:42043:1,2017-12-04T06:00:00Z,28.9818,-94.9186,4.0,4.405451169,110.7390816,5.37,'11111222,11111222,11111222' 
TABS,ioos:station:wmo:42043:1,2017-12-04T06:30:00Z,28.9818,-94.9186,4.0,3.786357088,112.0265773,4.41,'11111222,11111222,11111222' 
TABS,ioos:station:wmo:42043:1,2017-12-04T07:00:00Z,28.9818,-94.9186,4.0,4.157403036,128.3588121,4.7,'11111222,11111222,11111222' 
TABS,ioos:station:wmo:42043:1,2017-12-04T07:30:00Z,28.9818,-94.9186,4.0,3.627519814,135.3353741,4.25,'11111222,11111222,11111222' 
TABS,ioos:station:wmo:42043:1,2017-12-04T08:00:00Z,28.9818,-94.9186,4.0,4.396828402,140.445003,5.05,'11111222,11111222,11111222' 
TABS,ioos:station:wmo:42043:1,2017-12-04T08:30:00Z,28.9818,-94.9186,4.0,3.368798005,137.4062806,3.74,'11111222,11111222,11111222' 
TABS,ioos:station:wmo:42043:1,2017-12-04T09:00:00Z,28.9818,-94.9186,4.0,3.625051724,146.7047532,4.05,'11111222,11111222,11111222' 
TABS,ioos:station:wmo:42043:1,2017-12-04T09:30:00Z,28.9818,-94.9186,4.0,3.333766639,146.5008887,3.66,'11111222,11111222,11111222' 
TABS,ioos:station:wmo:42043:1,2017-12-04T10:00:00Z,28.9818,-94.9186,4.0,3.226158707,145.2265124,3.56,'11111222,11111222,11111222' 
TABS,ioos:station:wmo:42043:1,2017-12-04T10:30:00Z,28.9818,-94.9186,4.0,3.157340653,144.8001414,3.57,'11111222,11111222,11111222' 
TABS,ioos:station:wmo:42043:1,2017-12-04T11:00:00Z,28.9818,-94.9186,4.0,4.029751853,152.6721725,4.6,'11111222,11111222,11111222' 
TABS,ioos:station:wmo:42043:1,2017-12-04T11:30:00Z,28.9818,-94.9186,4.0,3.682132534,155.1055809,4.32,'11111222,11111222,11111222' 
TABS,ioos:station:wmo:42043:1,2017-12-04T12:00:00Z,28.9818,-94.9186,4.0,3.53192582,147.8401423,4.08,'11111222,11111222,11111222' 
TABS,ioos:station:wmo:42043:1,2017-12-04T12:30:00Z,28.9818,-94.9186,4.0,3.342289634,143.8846967,3.77,'11111222,11111222,11111222' 
TABS,ioos:station:wmo:42043:1,2017-12-04T13:00:00Z,28.9818,-94.9186,4.0,2.972002692,143.2075129,3.29,'11111222,11111222,11111222' 
TABS,ioos:station:wmo:42043:1,2017-12-04T13:30:00Z,28.9818,-94.9186,4.0,2.923593679,150.7172543,3.2,'11111222,11111222,11111222' 
TABS,ioos:station:wmo:42043:1,2017-12-04T14:00:00Z,28.9818,-94.9186,4.0,2.827030244,156.8815102,3.22,'11111222,11111222,11111222' 
TABS,ioos:station:wmo:42043:1,2017-12-04T14:30:00Z,28.9818,-94.9186,4.0,3.119695498,164.7612353,3.73,'11111222,11111222,11111222' 
TABS,ioos:station:wmo:42043:1,2017-12-04T15:00:00Z,28.9818,-94.9186,4.0,3.236355975,164.5898551,3.52,'11111222,11111222,11111222' 
TABS,ioos:station:wmo:42043:1,2017-12-04T15:30:00Z,28.9818,-94.9186,4.0,2.782265264,166.9130126,3.16,'11111222,11111222,11111222' 
TABS,ioos:station:wmo:42043:1,2017-12-04T16:00:00Z,28.9818,-94.9186,4.0,2.111421322,171.8317509,2.44,'11111222,11111222,11111222' 
TABS,ioos:station:wmo:42043:1,2017-12-04T16:30:00Z,28.9818,-94.9186,4.0,2.19729379,155.5347326,2.53,'11111222,11111222,11111222' 
TABS,ioos:station:wmo:42043:1,2017-12-04T17:00:00Z,28.9818,-94.9186,4.0,3.015824929,155.3047419,3.45,'11111222,11111222,11111222' 
TABS,ioos:station:wmo:42043:1,2017-12-04T17:30:00Z,28.9818,-94.9186,4.0,2.879600667,156.4620323,3.17,'11111222,11111222,11111222' 
TABS,ioos:station:wmo:42043:1,2017-12-04T18:00:00Z,28.9818,-94.9186,4.0,3.012308085,157.3511361,3.35,'11111222,11111222,11111222' 
TABS,ioos:station:wmo:42043:1,2017-12-04T18:30:00Z,28.9818,-94.9186,4.0,2.170023041,155.206687,2.48,'11111222,11111222,11111222' 